This is the latest recevied weather packets stored in our database for station/object W4KAB. If no packets are shown the sender has not sent any weather packets the latest 10 day(s).
| Time | Temp. | Humidity | Pressure | Rain* | Wind** | Luminosity | Snow |
|---|---|---|---|---|---|---|---|
| 1777242953 | 16.67° C | 79% | 1018.3 hPa | 0 mm | - | 26 W/m² | - |
| 1777242651 | 16.67° C | 79% | 1018.2 hPa | 0 mm | - | 23 W/m² | - |
| 1777242347 | 17.22° C | 78% | 1018.2 hPa | 0 mm | - | 31 W/m² | - |
| 1777242044 | 17.22° C | 79% | 1017.9 hPa | 0 mm | - | 24 W/m² | - |
| 1777241742 | 17.22° C | 78% | 1017.8 hPa | 0 mm | - | 40 W/m² | - |
| 1777241438 | 17.22° C | 77% | 1017.9 hPa | 0 mm | - | 43 W/m² | - |
| 1777241136 | 17.22° C | 77% | 1018.1 hPa | 0 mm | - | 69 W/m² | - |
| 1777240834 | 17.78° C | 77% | 1017.6 hPa | 0 mm | - | 59 W/m² | - |
| 1777240532 | 18.33° C | 76% | 1017.8 hPa | 0 mm | - | 61 W/m² | - |
| 1777240228 | 18.33° C | 76% | 1017.6 hPa | 0 mm | - | 58 W/m² | - |
| 1777239926 | 18.33° C | 75% | 1017.4 hPa | 0 mm | - | 99 W/m² | - |
| 1777239624 | 18.33° C | 75% | 1017.4 hPa | 0 mm | - | 113 W/m² | - |
| 1777239320 | 18.33° C | 76% | 1017.3 hPa | 0 mm | - | 223 W/m² | - |
| 1777239017 | 18.33° C | 76% | 1017.3 hPa | 0 mm | - | 180 W/m² | - |
| 1777238714 | 18.33° C | 77% | 1017.3 hPa | 0 mm | - | 104 W/m² | - |
| 1777238410 | 18.33° C | 77% | 1017.4 hPa | 0 mm | - | 98 W/m² | - |
| 1777238107 | 18.33° C | 76% | 1017.1 hPa | 0 mm | - | 78 W/m² | - |
| 1777237804 | 18.89° C | 75% | 1017.2 hPa | 0 mm | - | 61 W/m² | - |
| 1777237501 | 18.89° C | 74% | 1017.1 hPa | 0 mm | - | 81 W/m² | - |
| 1777237198 | 19.44° C | 74% | 1016.8 hPa | 0 mm | - | 100 W/m² | - |
| 1777236895 | 19.44° C | 74% | 1016.8 hPa | 0 mm | - | 117 W/m² | - |
| 1777236591 | 19.44° C | 73% | 1016.9 hPa | 0 mm | - | 159 W/m² | - |
| 1777236287 | 19.44° C | 73% | 1016.6 hPa | 0 mm | - | 127 W/m² | - |
| 1777235983 | 19.44° C | 73% | 1016.8 hPa | 0 mm | - | 181 W/m² | - |
| 1777235679 | 20° C | 73% | 1016.6 hPa | 0 mm | - | 110 W/m² | - |
* Rain latest hour (hover to see other rain measurements)
** Current wind speed in m/s (hover to see current wind gust speed)